BEIDOU-3 M13

Last updated on Thu Aug 20 2026 00:02:47 GMT+0000 (Coordinated Universal Time)

1 43622U 18072A 26230.82268007 -.00000055 00000+0 00000+0 0 9990 2 43622 56.6821 60.5942 0004855 334.5237 25.5016 1.86231044 53828
UTC large
Height (km)
Speed (km/s)
/
Latitude / Longitude
Inclination (degrees)
Orbital Period (minutes)
Azimuth
Elevation
Range (km)
Doppler Factor

Next 0 passes for location: London (51.5072 / 0.1276)

No passes found over London.
BEIDOU-3 M13